Location: Caltech
(34.1382°N, 118.1253°W)
Time: 05:23:48
(UTC-07:00)

Iridium 95 - Visible Passes

Search period start: 04 September 2015 00:00
Search period end: 14 September 2015 00:00
Orbit: 776 x 779 km, 86.4° (Epoch: 02 September)

Date Brightness Start Highest point End Pass type
(mag) Time Alt. Az. Time Alt. Az. Time Alt. Az.
04 Sep 7.9 03:37:13 10° NNW 03:37:55 14° NNW 03:37:55 14° NNW visible
05 Sep 8.1 03:03:26 10° N 03:04:09 14° N 03:04:09 14° N visible
06 Sep 8.4 02:30:03 10° N 02:30:23 12° N 02:30:23 12° N visible
